Location: Lafig�re
(44.4503°N, 4.0357°E)
Time: 21:47:47
(UTC+00:00)

Cosmos 1092 Rocket - Pass Details

Date: 27 January 2021
Orbit: 954 x 995 km, 83.0° (Epoch: 07 March)

Event Time Altitude Azimuth Distance (km) Brightness Sun altitude
Rises 19:49:32 0° 244° (WSW) 3,644 7.8 -32.7°
Reaches altitude 10° 19:53:34 10° 270° (W) 2,696 7.1 -33.4°
Maximum altitude 19:56:29 14° 298° (WNW) 2,444 6.7 -33.9°
Drops below altitude 10° 19:59:24 10° 327° (NNW) 2,696 6.7 -34.4°
Sets 20:03:28 0° 353° (N) 3,644 7.2 -35.1°
